This demonstration page uses our WeatherBlox Daily Observations layout. Learn more.

Left ArrowRight Arrow

Hourly Observations for April 28, 2021

Temp ( °F °C ) Dew Point ( °F °C ) Humidity (%) Winds ( mph kmh ) Pressure ( in mb ) Visibility ( mi km ) Precip ( " mm )
12:48 am 00:48 Mostly Cloudy 52 11 46 8 82 82 NE 13 20 29.86 1011 10 16 0.00 0.00
12:56 am 00:56 Cloudy 52 11.1 47 8.3 83 83 VRB 3 6 29.89 1012 9 14 0.00 0.00
1:04 am 01:04 Cloudy with Thunderstorms 52 11 46 8 82 82 WSW 12 19 29.95 1014 8 13 0.00 0.00
1:15 am 01:15 Cloudy with Thunderstorms 52 11 48 9 88 88 ENE 15 24 29.89 1012 10 16 0.03 0.76
1:56 am 01:56 Cloudy with Thunderstorms 50 10 48 8.9 93 93 E 15 24 29.88 1012 10 16 0.14 3.56
2:28 am 02:28 Cloudy with Thunderstorms 50 10 48 9 94 94 NW 7 11 29.94 1014 10 16 0.01 0.25
2:56 am 02:56 Cloudy with Nearby Thunderstorms 49 9.4 47 8.3 93 93 E 9 15 29.88 1012 10 16 0.27 6.86
3:12 am 03:12 Cloudy with Light Rain 48 9 46 8 94 94 E 13 20 29.89 1012 10 16 0.00 0.00
3:40 am 03:40 Cloudy 48 9 48 9 100 100 NNE 12 19 29.89 1012 9 14 0.00 0.00
3:56 am 03:56 Cloudy 49 9.4 48 8.9 97 97 NE 13 20 29.88 1012 10 16 0.00 0.00
4:56 am 04:56 Mostly Cloudy 48 8.9 47 8.3 96 96 NE 14 22 29.88 1012 10 16 0.00 0.00
5:16 am 05:16 Cloudy 48 9 46 8 94 94 NNE 9 15 29.90 1013 10 16 0.00 0.00
5:23 am 05:23 Cloudy 48 9 46 8 94 94 N 10 17 29.90 1013 10 16 0.00 0.00
5:56 am 05:56 Cloudy 48 8.9 47 8.3 96 96 N 9 15 29.90 1013 9 14 0.00 0.00
6:16 am 06:16 Cloudy 48 9 46 8 94 94 N 10 17 29.91 1013 10 16 0.00 0.00
6:56 am 06:56 Cloudy 48 8.9 47 8.3 96 96 NNE 8 13 29.91 1013 10 16 0.00 0.00
7:06 am 07:06 Cloudy 48 9 48 9 100 100 NNE 12 19 29.92 1013 9 14 0.00 0.00
7:16 am 07:16 Cloudy 48 9 48 9 100 100 N 10 17 29.92 1013 7 11 0.00 0.00
7:56 am 07:56 Cloudy 50 10 48 8.9 93 93 N 15 24 29.91 1013 9 14 0.00 0.00
8:56 am 08:56 Cloudy 50 10 48 8.9 93 93 NNE 14 22 29.94 1014 10 16 0.00 0.00
9:56 am 09:56 Cloudy with Mist and Fog 50 10 49 9.4 96 96 NNE 13 20 29.96 1015 5 8 0.00 0.00
10:56 am 10:56 Cloudy 50 10 49 9.4 96 96 NNE 16 26 29.96 1015 10 16 0.00 0.00
11:18 am 11:18 Cloudy 52 11 48 9 88 88 N 14 22 29.97 1015 9 14 0.00 0.00
11:56 am 11:56 Cloudy 51 10.6 49 9.4 92 92 N 17 28 29.97 1015 10 16 0.00 0.00
12:56 pm 12:56 Cloudy 53 11.7 50 10 89 89 N 18 30 29.96 1015 10 16 0.00 0.00
1:56 pm 13:56 Cloudy 54 12.2 51 10.6 90 90 N 20 31 29.96 1014 10 16 0.00 0.00
2:16 pm 14:16 Cloudy 55 13 50 10 82 82 N 16 26 29.93 1014 10 16 0.00 0.00
2:56 pm 14:56 Cloudy 57 13.9 51 10.6 81 81 NNE 21 33 29.93 1014 10 16 0.00 0.00
3:12 pm 15:12 Cloudy 57 14 52 11 82 82 NNE 17 28 29.91 1013 10 16 0.00 0.00
3:44 pm 15:44 Cloudy 59 15 52 11 77 77 NNE 16 26 29.91 1013 10 16 0.00 0.00
3:53 pm 15:53 Cloudy 59 15 52 11 77 77 NNE 14 22 29.90 1012 10 16 0.00 0.00
3:56 pm 15:56 Cloudy 60 15.6 53 11.7 78 78 NNE 14 22 29.92 1013 10 16 0.00 0.00
4:56 pm 16:56 Cloudy 61 16.1 52 11.1 72 72 N 15 24 29.92 1013 10 16 0.00 0.00
5:56 pm 17:56 Cloudy 61 16.1 52 11.1 72 72 NNE 14 22 29.93 1014 10 16 0.00 0.00
6:15 pm 18:15 Cloudy 61 16 52 11 72 72 NNE 12 19 29.90 1012 10 16 0.00 0.00
6:56 pm 18:56 Cloudy 60 15.6 51 10.6 72 72 NNE 13 20 29.94 1014 10 16 0.00 0.00
7:56 pm 19:56 Cloudy 60 15.6 52 11.1 75 75 N 7 11 29.96 1014 10 16 0.00 0.00
8:56 pm 20:56 Partly Cloudy 57 13.9 50 10 78 78 NNW 6 9 29.98 1015 10 16 0.00 0.00
9:56 pm 21:56 Clear 52 11.1 48 8.9 86 86 NW 5 7 30.01 1016 10 16 0.00 0.00
10:56 pm 22:56 Clear 51 10.6 47 8.3 86 86 WNW 6 9 30.03 1017 10 16 0.00 0.00
11:56 pm 23:56 Clear 51 10.6 47 8.3 86 86 NW 7 11 30.04 1017 10 16 0.00 0.00

Powered by AerisWeather